Location: Gajan
(43.0218°N, 1.1244°E)
Time: 16:01:48
(UTC+00:00)

Terra - Pass Details

Date: 22 April 2021
Orbit: 701 x 703 km, 98.2° (Epoch: 13 May)

Event Time Altitude Azimuth Distance (km) Brightness Sun altitude
Exits shadow 22:42:43 27° 290° (WNW) 1,339 3.5 -32.1°
Drops below altitude 10° 22:45:47 10° 326° (NW) 2,178 5.2 -32.3°
Sets 22:48:17 0° 337° (NNW) 3,101 6.3 -32.5°
